FW0906 Weather Reports


Display with metric or nautical units.
time (UTC)temp
F
wind
direction
speed
MPH
gust
MPH
rain 1hr
in
rain 24hr
in
rain mn
in
humidity
%
barometer
mb
20260505230054 57 306 3.0 11.0 0.00 0.00 0.00 37 1010.5
20260505224536 57 355 2.0 10.0 0.00 0.00 0.00 37 1010.6
20260505223036 58 319 1.0 14.0 0.00 0.00 0.00 36 1010.8
20260505221533 58 360 6.0 16.0 0.00 0.00 0.00 37 1010.7
20260505220023 58 360 1.0 13.0 0.00 0.00 0.00 36 1010.6
20260505214520 57 360 3.0 15.0 0.00 0.00 0.00 35 1010.9
20260505213014 57 360 9.0 15.0 0.00 0.00 0.00 34 1010.8
20260505211511 58 360 7.0 14.0 0.00 0.00 0.00 34 1010.9
20260505210006 57 360 2.0 14.0 0.00 0.00 0.00 34 1010.8
20260505204502 57 360 7.0 13.0 0.00 0.00 0.00 33 1011.0
20260505203116 57 360 8.0 14.0 0.00 0.00 0.00 33 1011.0
20260505201554 58 360 3.0 14.0 0.00 0.00 0.00 34 1011.1
20260505200050 58 360 7.0 15.0 0.00 0.00 0.00 34 1011.0
20260505194555 58 360 6.0 14.0 0.00 0.00 0.00 34 1011.1
20260505193040 58 360 5.0 15.0 0.00 0.00 0.00 33 1011.0
20260505191535 58 360 8.0 14.0 0.00 0.00 0.00 33 1011.2
20260505190031 57 360 7.0 15.0 0.00 0.00 0.00 34 1011.4
20260505184527 57 311 6.0 13.0 0.00 0.00 0.00 34 1011.2
20260505183022 58 360 5.0 15.0 0.00 0.00 0.00 36 1011.3
20260505181518 57 360 8.0 14.0 0.00 0.00 0.00 37 1011.2
20260505180016 57 360 9.0 17.0 0.00 0.00 0.00 36 1011.2
20260505174514 58 326 6.0 12.0 0.00 0.00 0.00 38 1011.2
20260505173014 57 312 6.0 17.0 0.00 0.00 0.00 37 1011.0
20260505171600 58 360 0.0 11.0 0.00 0.00 0.00 37 1010.9
20260505170057 58 315 4.0 14.0 0.00 0.00 0.00 36 1010.6
20260505164600 59 360 3.0 15.0 0.00 0.00 0.00 36 1010.6
20260505163054 58 360 4.0 14.0 0.00 0.00 0.00 36 1010.6
20260505161545 58 332 1.0 10.0 0.00 0.00 0.00 38 1010.9
20260505153044 55 360 1.0 6.0 0.00 0.00 0.00 33 1010.5
20260505151526 54 251 1.0 5.0 0.00 0.00 0.00 26 1010.3
20260505124542 48 360 0.0 0.0 0.00 0.00 0.00 100 1010.3
20260505123037 48 360 0.0 8.0 0.00 0.00 0.00 100 1010.9
20260505121537 49 326 0.0 0.0 0.00 0.00 0.00 5 1010.3
20260505120030 49 324 0.0 11.0 0.00 0.00 0.00 22 1010.7
20260505114533 50 299 0.0 7.0 0.00 0.00 0.00 40 1010.5
20260505113022 51 316 0.0 4.0 0.00 0.00 0.00 49 1009.4
20260505111519 52 360 0.0 8.0 0.00 0.00 0.00 49 1009.5
20260505101510 54 360 0.0 6.0 0.00 0.00 0.00 47 1008.7
20260505100010 54 355 1.0 11.0 0.00 0.00 0.00 46 1007.6
20260505094505 54 360 0.0 7.0 0.00 0.00 0.00 46 1007.3
20260505093004 55 310 0.0 0.0 0.00 0.00 0.00 47 1007.6
20260505091506 55 301 0.0 9.0 0.00 0.00 0.00 47 1007.5
20260505084557 56 302 3.0 12.0 0.00 0.00 0.00 47 1006.7
20260505083055 56 318 3.0 11.0 0.00 0.00 0.00 47 1006.2
20260505081559 56 304 0.0 0.0 0.00 0.00 0.00 47 1005.7
20260505080049 57 303 0.0 9.0 0.00 0.00 0.00 47 1005.2
20260505074603 57 360 3.0 9.0 0.00 0.00 0.00 47 1004.9
20260505073042 57 304 0.0 9.0 0.00 0.00 0.00 46 1004.8
20260505071541 57 301 0.0 8.0 0.00 0.00 0.00 46 1004.8
20260505070038 58 304 1.0 7.0 0.00 0.00 0.00 46 1004.3
20260505064536 59 360 0.0 0.0 0.00 0.00 0.00 45 1004.3
20260505063039 59 360 0.0 0.0 0.00 0.00 0.00 44 1004.2
20260505061536 59 360 0.0 0.0 0.00 0.00 0.00 44 1004.2
20260505060029 60 304 0.0 9.0 0.00 0.00 0.00 43 1004.2
20260505054529 60 360 0.0 7.0 0.00 0.00 0.00 43 1004.0
20260505053025 61 360 6.0 12.0 0.00 0.00 0.00 43 1004.1
20260505051523 61 360 9.0 14.0 0.00 0.00 0.00 42 1003.9
20260505041506 62 300 0.0 0.0 0.00 0.00 0.00 100 1003.0
20260505040002 62 360 0.0 0.0 0.00 0.00 0.00 100 1003.0
20260505034558 63 360 0.0 0.0 0.00 0.00 0.00 100 1002.9
20260505033054 63 360 0.0 0.0 0.00 0.00 0.00 100 1002.8
20260505031549 63 360 0.0 0.0 0.00 0.00 0.00 100 1002.7
20260505030046 64 360 0.0 13.0 0.00 0.00 0.00 100 1002.3
20260505024603 64 360 1.0 11.0 0.00 0.00 0.00 100 1002.6
20260505023038 64 257 0.0 9.0 0.00 0.00 0.00 100 1002.3
20260505021545 64 360 0.0 9.0 0.00 0.00 0.00 100 1001.7
20260505020027 65 360 5.0 12.0 0.00 0.00 0.00 100 1001.3
20260505014526 65 360 4.0 12.0 0.00 0.00 0.00 100 1001.2
20260505013018 65 227 0.0 8.0 0.00 0.00 0.00 100 1000.7
20260505011516 65 247 1.0 12.0 0.00 0.00 0.00 100 1000.8
20260505010009 66 360 9.0 19.0 0.00 0.00 0.00 100 1000.5
20260505004513 67 213 3.0 16.0 0.00 0.00 0.00 100 1000.4
20260505003001 68 209 3.0 11.0 0.00 0.00 0.00 100 1000.6
20260505001557 69 202 0.0 0.0 0.00 0.00 0.00 100 999.1
20260505000056 71 222 1.0 10.0 0.00 0.00 0.00 26 999.6
20260504234548 72 244 6.0 12.0 0.00 0.00 0.00 43 999.7
20260504233056 72 360 2.0 9.0 0.00 0.00 0.00 44 999.4
20260504231539 73 250 12.0 27.0 0.00 0.00 0.00 44 999.5